Home   Weather   Palikir   Past weeks

Flag for Micronesia Past Weather in Palikir, Pohnpei, Micronesia — Yesterday and Last 2 Weeks

Now
78 °F

Mostly cloudy.


Feels Like: 81 °F
Forecast: 76 / 87 °F
Wind: 5 mph from Southeast

Location: Pohnpei

Current Time: Sep 27, 2016 at 1:04:47 AM

Latest Report: Sep 26, 2016 at 11:52 PM


Visibility: 15 mi

Pressure: 29.86 "Hg

Humidity: 94%

Dew Point: 76 °F

Location of PalikirLocation

Past Weather in Palikir — Graph

°F

Palikir Temperature Yesterday

Maximum temperature yesterday: 89 °F (at 10:54 AM)
Minimum temperature yesterday: 75 °F (at 3:52 AM)
Average temperature yesterday: 81 °F

High & Low Weather Summary for the Past Weeks

 TemperatureHumidityPressure
High92 °F (Sep 19, 2:51 PM)100% (Sep 24, 10:53 PM)29.96 "Hg (Sep 24, 10:53 PM)
Low73 °F (Sep 18, 1:53 AM)59% (Sep 14, 11:50 AM)29.74 "Hg (Sep 24, 3:53 PM)
Average81 °F85%29.84 "Hg
* Reported Sep 11 11:55 PM — Sep 26 11:52 PM, Palikir, Weather by CustomWeather, © 2016

Note: Actual official high and low records may vary slightly from our data, if they occured in-between our weather recording intervals... More about our weather records

Advertising

Palikir Weather History for the Previous 24 Hours

Scroll right to see more
 ConditionsComfort  
Time TempWeatherWind HumidityBarometerVisibility
11:52 PM
Mon, Sep 26
78 °FMostly cloudy.5 mph94%29.86 "Hg15 mi
10:50 PM78 °FSprinkles. Mostly cloudy.5 mph87%29.88 "Hg10 mi
9:50 PM79 °FMostly cloudy.6 mph91%29.87 "Hg15 mi
8:53 PM78 °FMostly cloudy.6 mph94%29.86 "Hg15 mi
7:50 PM78 °FPartly cloudy.6 mph94%29.84 "Hg15 mi
6:51 PM78 °FMostly cloudy.6 mph94%29.82 "Hg15 mi
6:01 PM84 °FSprinkles. Mostly cloudy.10 mph79%29.81 "Hg15 mi
4:57 PM87 °FBroken clouds.7 mph75%29.78 "Hg15 mi
3:55 PM89 °FMore clouds than sun.5 mph67%29.77 "Hg15 mi
2:52 PM87 °FMore clouds than sun.2 mph72%29.78 "Hg15 mi
1:52 PM87 °FMore clouds than sun.3 mph73%29.80 "Hg15 mi
12:52 PM87 °FMore clouds than sun.2 mph72%29.82 "Hg15 mi
11:52 AM87 °FMore clouds than sun.5 mph75%29.84 "Hg15 mi
10:54 AM89 °FPartly sunny.2 mph76%29.86 "Hg15 mi
9:52 AM87 °FPartly sunny.2 mph74%29.88 "Hg15 mi
8:55 AM86 °FPartly sunny.3 mph74%29.88 "Hg15 mi
7:54 AM78 °FPartly sunny.3 mph95%29.87 "Hg15 mi
6:54 AM76 °FCloudy.3 mph96%29.85 "Hg15 mi
5:53 AM77 °FOvercast.5 mph94%29.85 "Hg15 mi
4:54 AM77 °FMostly cloudy.3 mph96%29.83 "Hg15 mi
3:52 AM75 °FPartly cloudy.5 mph99%29.82 "Hg15 mi
2:52 AM76 °FPassing clouds.3 mph97%29.82 "Hg15 mi
1:54 AM76 °FMostly cloudy.10 mph97%29.84 "Hg15 mi
Weather by CustomWeather, © 2016

See weather overviewHow to use our weather pages